Weather History for Hays, KS

Change the Weather History Date:

Monday, April 15, 2013

  Actual Average Record
Temperature  
Mean Temperature 42 °F -  
Max Temperature 53 °F 62 °F 95 °F (2002)
Min Temperature 30 °F 38 °F 19 °F (2014)
Degree Days  
Heating Degree Days 24    
Moisture  
Dew Point 24 °F    
Average Humidity 48    
Maximum Humidity 70    
Minimum Humidity 30    
Precipitation  
Precipitation 0.00 in - - ()
Sea Level Pressure  
Sea Level Pressure 29.86 in    
Wind  
Wind Speed 8 mph (NNE)    
Max Wind Speed 17 mph    
Max Gust Speed 24 mph    
Visibility 10 miles    
Events      
Averages and records for this station are not official NWS values.
T = Trace of Precipitation, MM = Missing Value Source: NWS Daily Summary

Daily Weather History Graph

Daily Weather History Graph

Search for Another Location

Airport:

Trip Planner

Search our weather history database for the weather conditions in past years. The results will help you decide how hot, cold, wet, or windy it might be!

Date:

Astronomy

Apr. 15, 2013 Rise Set
Actual Time 7:00 AM CDT 8:14 PM CDT
Civil Twilight 6:32 AM CDT 8:42 PM CDT
Nautical Twilight 5:59 AM CDT 9:15 PM CDT
Astronomical Twilight 5:25 AM CDT 9:49 PM CDT
Moon 10:29 AM CDT (4/15) 12:26 AM CDT (4/15)
Length of Visible Light 14h 09m
Length of Day
13h 14m
Waxing Crescent, 25% of the Moon is Illuminated
Apr 15
Waxing Crescent
Apr 18
First Quarter
Apr 25
Full
May 2
Last Quarter
May 9
New

Hourly Weather History & Observations

Time (CDT) Temp. Windchill Dew Point Humidity Pressure Visibility Wind Dir Wind Speed Gust Speed Precip Events Conditions
12:15 AM 35.6 °F 32.8 °F 24.8 °F 65% 29.75 in 10.0 mi NNE 3.5 mph - N/A   Scattered Clouds
12:35 AM 37.4 °F - 23.0 °F 56% 29.76 in 10.0 mi Calm Calm - N/A   Partly Cloudy
12:55 AM 37.4 °F - 23.0 °F 56% 29.76 in 10.0 mi Calm Calm - N/A   Clear
1:15 AM 35.6 °F - 23.0 °F 60% 29.76 in 10.0 mi Calm Calm - N/A   Clear
1:35 AM 35.6 °F - 21.2 °F 56% 29.76 in 10.0 mi Calm Calm - N/A   Clear
1:55 AM 35.6 °F 31.7 °F 23.0 °F 60% 29.76 in 10.0 mi NW 4.6 mph - N/A   Clear
2:15 AM 33.8 °F 28.6 °F 21.2 °F 60% 29.75 in 10.0 mi NW 5.8 mph - N/A   Clear
2:35 AM 32.0 °F 26.4 °F 21.2 °F 64% 29.75 in 10.0 mi NW 5.8 mph - N/A   Clear
2:55 AM 32.0 °F 26.4 °F 21.2 °F 64% 29.74 in 10.0 mi NW 5.8 mph - N/A   Clear
3:15 AM 32.0 °F 24.8 °F 21.2 °F 64% 29.72 in 10.0 mi NNW 8.1 mph - N/A   Clear
3:35 AM 30.2 °F 24.3 °F 21.2 °F 69% 29.73 in 10.0 mi West 5.8 mph - N/A   Clear
3:55 AM 33.8 °F 29.6 °F 21.2 °F 60% 29.73 in 10.0 mi West 4.6 mph - N/A   Scattered Clouds
4:15 AM 33.8 °F - 24.8 °F 70% 29.76 in 10.0 mi Calm Calm - N/A   Overcast
4:35 AM 33.8 °F - 24.8 °F 70% 29.77 in 10.0 mi Calm Calm - N/A   Overcast
4:55 AM 35.6 °F - 24.8 °F 65% 29.78 in 10.0 mi Calm Calm - N/A   Overcast
5:15 AM 35.6 °F 29.2 °F 26.6 °F 70% 29.80 in 10.0 mi North 8.1 mph - N/A   Overcast
5:35 AM 39.2 °F 34.2 °F 26.6 °F 61% 29.81 in 10.0 mi North 6.9 mph - N/A   Overcast
5:55 AM 42.8 °F 38.0 °F 26.6 °F 53% 29.82 in 10.0 mi North 8.1 mph - N/A   Overcast
6:15 AM 42.8 °F 38.6 °F 24.8 °F 49% 29.83 in 10.0 mi North 6.9 mph - N/A   Overcast
6:35 AM 42.8 °F 39.3 °F 24.8 °F 49% 29.85 in 10.0 mi NNW 5.8 mph - N/A   Overcast
6:55 AM 42.8 °F 38.6 °F 24.8 °F 49% 29.87 in 10.0 mi North 6.9 mph - N/A   Overcast
7:15 AM 41.0 °F 35.8 °F 24.8 °F 53% 29.88 in 10.0 mi North 8.1 mph - N/A   Overcast
7:35 AM 42.8 °F 37.0 °F 24.8 °F 49% 29.88 in 10.0 mi North 10.4 mph - N/A   Overcast
7:55 AM 41.0 °F 35.2 °F 24.8 °F 53% 29.87 in 10.0 mi North 9.2 mph - N/A   Overcast
8:15 AM 41.0 °F 35.2 °F 24.8 °F 53% 29.87 in 10.0 mi NNE 9.2 mph - N/A   Overcast
8:35 AM 41.0 °F 33.5 °F 24.8 °F 53% 29.87 in 10.0 mi NNE 13.8 mph 18.4 mph N/A   Overcast
8:55 AM 41.0 °F 32.8 °F 24.8 °F 53% 29.87 in 10.0 mi NNE 16.1 mph - N/A   Overcast
9:15 AM 42.8 °F 35.4 °F 24.8 °F 49% 29.87 in 10.0 mi NNE 15.0 mph - N/A   Overcast
9:35 AM 42.8 °F 35.4 °F 24.8 °F 49% 29.87 in 10.0 mi NE 15.0 mph - N/A   Overcast
9:55 AM 42.8 °F 35.1 °F 26.6 °F 53% 29.88 in 10.0 mi NE 16.1 mph - N/A   Overcast
10:15 AM 42.8 °F 35.4 °F 26.6 °F 53% 29.89 in 10.0 mi ENE 15.0 mph - N/A   Overcast
10:35 AM 42.8 °F 35.1 °F 26.6 °F 53% 29.90 in 10.0 mi NE 16.1 mph - N/A   Overcast
10:55 AM 42.8 °F 35.4 °F 24.8 °F 49% 29.91 in 10.0 mi NNE 15.0 mph - N/A   Overcast
11:15 AM 44.6 °F 38.8 °F 24.8 °F 46% 29.91 in 10.0 mi NE 11.5 mph 16.1 mph N/A   Overcast
11:35 AM 44.6 °F 38.4 °F 26.6 °F 49% 29.92 in 10.0 mi NNE 12.7 mph - N/A   Overcast
11:55 AM 44.6 °F 38.1 °F 26.6 °F 49% 29.93 in 10.0 mi NNE 13.8 mph 17.3 mph N/A   Overcast
12:15 PM 46.4 °F 40.1 °F 23.0 °F 40% 29.93 in 10.0 mi NE 15.0 mph 19.6 mph N/A   Overcast
12:35 PM 48.2 °F - 24.8 °F 40% 29.91 in 10.0 mi NNE 12.7 mph 19.6 mph N/A   Overcast
12:55 PM 48.2 °F - 23.0 °F 37% 29.91 in 10.0 mi NE 16.1 mph 20.7 mph N/A   Mostly Cloudy
1:15 PM 48.2 °F - 23.0 °F 37% 29.90 in 10.0 mi NE 12.7 mph - N/A   Overcast
1:35 PM 50.0 °F - 23.0 °F 35% 29.89 in 10.0 mi NNE 17.3 mph 23.0 mph N/A   Mostly Cloudy
1:55 PM 50.0 °F - 23.0 °F 35% 29.88 in 10.0 mi NNE 16.1 mph 24.2 mph N/A   Scattered Clouds
2:15 PM 51.8 °F - 24.8 °F 35% 29.87 in 10.0 mi NE 16.1 mph 21.9 mph N/A   Partly Cloudy
2:35 PM 51.8 °F - 23.0 °F 33% 29.86 in 10.0 mi NE 16.1 mph 19.6 mph N/A   Mostly Cloudy
2:55 PM 51.8 °F - 24.8 °F 35% 29.86 in 10.0 mi NE 17.3 mph 21.9 mph N/A   Partly Cloudy
3:15 PM 51.8 °F - 24.8 °F 35% 29.85 in 10.0 mi NE 13.8 mph 24.2 mph N/A   Scattered Clouds
3:35 PM 51.8 °F - 23.0 °F 33% 29.84 in 10.0 mi NE 15.0 mph 19.6 mph N/A   Mostly Cloudy
3:55 PM 51.8 °F - 23.0 °F 33% 29.84 in 10.0 mi NE 12.7 mph 20.7 mph N/A   Mostly Cloudy
4:15 PM 51.8 °F - 23.0 °F 33% 29.85 in 10.0 mi ENE 12.7 mph - N/A   Mostly Cloudy
4:35 PM 53.6 °F - 24.8 °F 33% 29.85 in 10.0 mi NE 15.0 mph 18.4 mph N/A   Mostly Cloudy
4:55 PM 51.8 °F - 23.0 °F 33% 29.86 in 10.0 mi NE 12.7 mph - N/A   Mostly Cloudy
5:15 PM 53.6 °F - 23.0 °F 30% 29.87 in 10.0 mi NNE 10.4 mph - N/A   Scattered Clouds
5:35 PM 53.6 °F - 23.0 °F 30% 29.87 in 10.0 mi NE 13.8 mph 20.7 mph N/A   Scattered Clouds
5:55 PM 51.8 °F - 23.0 °F 33% 29.88 in 10.0 mi NNE 16.1 mph 19.6 mph N/A   Partly Cloudy
6:15 PM 51.8 °F - 21.2 °F 30% 29.89 in 10.0 mi NE 13.8 mph - N/A   Clear
6:35 PM 51.8 °F - 21.2 °F 30% 29.89 in 10.0 mi NE 16.1 mph - N/A   Clear
6:55 PM 51.8 °F - 21.2 °F 30% 29.90 in 10.0 mi NE 16.1 mph - N/A   Clear
7:15 PM 50.0 °F - 21.2 °F 32% 29.91 in 10.0 mi NE 16.1 mph - N/A   Clear
7:35 PM 48.2 °F - 21.2 °F 34% 29.92 in 10.0 mi ENE 13.8 mph - N/A   Clear
7:55 PM 46.4 °F 41.1 °F 21.2 °F 37% 29.93 in 10.0 mi ENE 11.5 mph - N/A   Clear
8:15 PM 44.6 °F 39.2 °F 21.2 °F 39% 29.93 in 10.0 mi ENE 10.4 mph - N/A   Clear
8:35 PM 42.8 °F 37.5 °F 21.2 °F 42% 29.94 in 10.0 mi ENE 9.2 mph - N/A   Clear
8:55 PM 41.0 °F 34.7 °F 21.2 °F 45% 29.94 in 10.0 mi ENE 10.4 mph - N/A   Clear
9:15 PM 39.2 °F 33.0 °F 23.0 °F 52% 29.96 in 10.0 mi NE 9.2 mph - N/A   Clear
9:35 PM 39.2 °F 32.0 °F 23.0 °F 52% 29.95 in 10.0 mi NE 11.5 mph - N/A   Clear
9:55 PM 39.2 °F 31.6 °F 24.8 °F 56% 29.95 in 10.0 mi ENE 12.7 mph - N/A   Clear
10:15 PM 39.2 °F 32.0 °F 23.0 °F 52% 29.95 in 10.0 mi ENE 11.5 mph - N/A   Clear
10:35 PM 39.2 °F 31.6 °F 23.0 °F 52% 29.96 in 10.0 mi ENE 12.7 mph - N/A   Clear
10:55 PM 39.2 °F 30.8 °F 24.8 °F 56% 29.96 in 10.0 mi ENE 15.0 mph - N/A   Clear
11:15 PM 39.2 °F 31.2 °F 26.6 °F 61% 29.95 in 10.0 mi NE 13.8 mph - N/A   Clear
11:35 PM 37.4 °F 28.5 °F 26.6 °F 65% 29.94 in 10.0 mi NE 15.0 mph - N/A   Clear
11:55 PM 37.4 °F 28.2 °F 26.6 °F 65% 29.94 in 10.0 mi NE 16.1 mph - N/A   Clear